�N����,����,�~����,�C��,���x,�C��,����,���ϕ���,�ő�u�ԕ���,�ő厞����,���˗�,�I�_���x,�n�����x,�ő啗���N��,DTYPE
"17/01/13","00:10",0.0,4.0,74.9,1002.4,285.6,2.5,4.8,289.6,0.00,0.0,5.8,"00:04:08",1
"17/01/13","00:20",0.0,3.9,74.8,1002.4,306.4,2.5,4.3,313.0,0.00,-0.1,5.6,"00:15:44",1
"17/01/13","00:30",0.0,3.8,75.6,1002.2,289.2,2.5,4.4,276.8,0.00,-0.1,5.6,"00:29:20",1
"17/01/13","00:40",0.0,3.9,75.4,1002.2,295.3,2.3,3.7,313.0,0.00,0.0,5.5,"00:37:44",1
"17/01/13","00:50",0.0,3.8,75.4,1002.4,298.4,2.3,3.6,322.9,0.00,-0.1,5.4,"00:42:40",1
"17/01/13","01:00",0.0,3.6,75.5,1002.2,298.8,2.0,3.4,288.3,0.00,-0.3,5.7,"00:52:40",1
"17/01/13","01:10",0.0,3.5,76.6,1001.9,312.1,2.5,4.3,312.3,0.00,-0.2,5.8,"01:07:50",1
"17/01/13","01:20",0.0,3.5,76.9,1001.9,311.5,2.7,5.5,315.2,0.00,-0.1,5.6,"01:15:04",1
"17/01/13","01:30",0.0,3.5,77.1,1001.9,311.7,2.6,4.2,329.9,0.00,-0.1,5.6,"01:20:24",1
"17/01/13","01:40",0.0,3.5,77.6,1001.9,313.0,3.4,6.6,316.2,0.00,0.0,5.2,"01:30:02",1
"17/01/13","01:50",0.0,3.8,76.7,1002.2,307.8,3.5,6.2,329.3,0.00,0.1,5.3,"01:40:40",1
"17/01/13","02:00",0.0,3.9,76.4,1002.2,309.9,3.2,5.6,303.3,0.00,0.2,5.2,"01:56:24",1
"17/01/13","02:10",0.0,4.0,76.3,1002.2,300.2,3.1,5.6,320.6,0.00,0.3,5.5,"02:09:52",1
"17/01/13","02:20",0.0,4.0,76.3,1002.4,315.4,3.5,5.9,324.4,0.00,0.3,5.5,"02:13:04",1
"17/01/13","02:30",0.0,3.8,76.8,1002.2,307.2,2.8,4.8,315.2,0.00,0.1,5.4,"02:28:24",1
"17/01/13","02:40",0.0,3.5,77.6,1002.2,305.2,2.5,5.2,325.6,0.00,0.0,5.5,"02:31:44",1
"17/01/13","02:50",0.0,3.5,78.7,1002.4,321.3,3.7,5.7,312.3,0.00,0.2,5.4,"02:43:44",1
"17/01/13","03:00",0.0,3.6,78.5,1002.2,318.9,3.6,6.7,320.0,0.00,0.3,5.3,"02:57:04",1
"17/01/13","03:10",0.0,3.6,78.6,1002.2,316.5,3.4,4.9,322.3,0.00,0.3,5.5,"03:07:44",1
"17/01/13","03:20",0.0,3.6,78.7,1001.9,322.1,3.7,5.6,338.4,0.00,0.3,5.4,"03:19:12",1
"17/01/13","03:30",0.0,3.6,78.7,1001.9,318.0,3.7,5.4,324.0,0.00,0.3,5.3,"03:22:08",1
"17/01/13","03:40",0.0,3.7,78.6,1001.9,318.7,4.0,7.2,328.9,0.00,0.4,5.2,"03:34:40",1
"17/01/13","03:50",0.0,3.7,78.6,1001.9,321.6,4.4,7.4,324.9,0.00,0.4,5.3,"03:46:32",1
"17/01/13","04:00",0.0,3.7,78.8,1001.7,320.1,4.2,6.5,321.1,0.00,0.4,5.3,"03:56:00",1
"17/01/13","04:10",0.0,3.5,78.9,1001.5,318.8,3.5,5.9,327.1,0.00,0.2,5.4,"04:02:40",1
"17/01/13","04:20",0.0,3.2,79.7,1001.5,301.6,2.7,4.2,300.1,0.00,0.1,5.3,"04:16:00",1
"17/01/13","04:30",0.0,3.1,80.8,1001.2,305.0,2.8,3.9,326.9,0.00,0.2,5.3,"04:29:12",1
"17/01/13","04:40",0.0,3.2,81.1,1001.5,316.7,3.7,5.2,315.0,0.00,0.3,5.2,"04:32:32",1
"17/01/13","04:50",0.0,3.0,81.1,1001.5,299.7,2.6,5.0,332.0,0.00,0.1,5.3,"04:40:16",1
"17/01/13","05:00",0.0,2.7,82.2,1001.5,300.9,2.5,4.0,308.1,0.00,0.0,5.3,"04:58:48",1
"17/01/13","05:10",0.0,2.7,83.3,1001.5,302.9,3.0,4.4,264.9,0.00,0.2,5.2,"05:09:04",1
"17/01/13","05:20",0.0,2.8,83.3,1001.5,285.5,2.7,3.7,278.1,0.00,0.3,5.2,"05:10:32",1
"17/01/13","05:30",0.0,2.9,83.3,1001.5,286.2,2.7,5.8,309.9,0.00,0.4,5.0,"05:22:56",1
"17/01/13","05:40",0.0,2.7,83.2,1001.5,298.0,2.6,4.3,314.5,0.00,0.2,4.9,"05:31:44",1
"17/01/13","05:50",0.0,2.2,84.3,1001.5,296.7,2.5,3.3,316.0,0.00,-0.1,4.7,"05:43:06",1
"17/01/13","06:00",0.0,2.0,85.8,1001.2,304.5,2.8,4.1,318.4,0.00,-0.1,4.9,"05:58:02",1
"17/01/13","06:10",0.0,2.0,86.7,1001.2,295.5,2.8,4.3,315.1,0.00,0.1,4.8,"06:05:10",1
"17/01/13","06:20",0.0,1.9,87.1,1001.2,292.2,2.7,4.0,321.1,0.00,0.0,4.8,"06:19:46",1
"17/01/13","06:30",0.0,1.9,87.5,1001.2,307.5,3.4,4.8,325.5,0.00,0.1,4.9,"06:26:34",1
"17/01/13","06:40",0.0,1.7,87.9,1001.5,289.7,2.3,3.9,315.7,0.00,0.0,4.8,"06:38:18",1
"17/01/13","06:50",0.0,1.6,88.5,1001.5,297.7,2.8,4.3,318.9,0.00,-0.1,4.8,"06:42:36",1
"17/01/13","07:00",0.0,1.8,89.1,1001.5,309.2,3.5,6.4,335.2,0.00,0.2,4.8,"06:55:46",1
"17/01/13","07:10",0.0,2.1,88.7,1001.2,312.2,4.0,6.2,317.7,0.00,0.5,4.7,"07:04:24",1
"17/01/13","07:20",0.0,2.1,87.5,1001.9,292.5,2.7,3.5,299.5,0.00,0.3,4.6,"07:16:40",1
"17/01/13","07:30",0.0,1.9,87.9,1001.9,296.1,2.8,4.2,316.7,0.00,0.2,4.8,"07:28:58",1
"17/01/13","07:40",0.0,1.8,88.7,1001.9,293.9,3.1,5.1,317.3,0.00,0.2,4.7,"07:37:56",1
"17/01/13","07:50",0.0,2.1,88.7,1001.9,305.8,3.0,4.7,316.9,0.00,0.5,4.7,"07:43:20",1
"17/01/13","08:00",0.0,2.7,86.8,1002.2,284.6,2.6,3.9,303.3,0.00,0.8,4.7,"07:55:12",1
"17/01/13","08:10",0.0,3.0,85.8,1001.9,286.9,3.0,4.9,297.8,0.01,0.9,4.7,"08:08:56",1
"17/01/13","08:20",0.0,3.4,84.3,1002.2,288.2,3.2,4.7,306.5,0.02,1.0,4.7,"08:13:28",1
"17/01/13","08:30",0.0,3.8,82.6,1002.6,301.0,3.0,4.3,335.4,0.04,1.2,4.8,"08:20:08",1
"17/01/13","08:40",0.0,4.2,80.8,1002.9,292.7,2.7,5.0,325.4,0.05,1.2,4.9,"08:32:08",1
"17/01/13","08:50",0.0,4.6,79.0,1003.1,285.8,2.5,3.7,303.3,0.08,1.3,4.8,"08:47:44",1
"17/01/13","09:00",0.0,5.0,76.7,1003.1,284.9,2.2,3.7,247.9,0.10,1.3,5.0,"08:52:18",1
"17/01/13","09:10",0.0,5.4,73.5,1003.4,274.0,2.5,4.0,309.3,0.12,1.1,5.0,"09:09:10",1
"17/01/13","09:20",0.0,5.7,72.0,1003.4,270.6,2.7,5.5,292.3,0.15,1.1,5.3,"09:16:54",1
"17/01/13","09:30",0.0,5.9,69.5,1002.9,263.5,3.0,4.1,244.3,0.18,0.8,5.4,"09:29:44",1
"17/01/13","09:40",0.0,6.4,66.2,1003.8,279.8,2.6,4.1,312.9,0.20,0.6,5.6,"09:39:02",1
"17/01/13","09:50",0.0,6.7,66.5,1003.8,288.3,3.0,5.5,303.4,0.22,0.9,5.6,"09:46:50",1
"17/01/13","10:00",0.0,6.9,64.6,1003.6,270.5,2.8,5.0,310.4,0.25,0.7,5.8,"09:53:32",1
"17/01/13","10:10",0.0,7.1,65.1,1003.6,256.5,3.1,5.9,234.8,0.27,1.0,6.1,"10:06:52",1
"17/01/13","10:20",0.0,7.2,62.1,1003.6,290.3,2.7,5.2,307.5,0.29,0.5,6.0,"10:17:14",1
"17/01/13","10:30",0.0,7.7,62.1,1003.6,275.1,2.5,4.9,265.9,0.32,0.9,6.2,"10:23:20",1
"17/01/13","10:40",0.0,7.7,60.5,1003.8,269.3,2.3,5.2,306.5,0.34,0.6,6.3,"10:36:00",1
"17/01/13","10:50",0.0,8.2,54.9,1003.8,269.0,2.5,5.0,255.8,0.42,-0.3,6.4,"10:48:48",1
"17/01/13","11:00",0.0,8.5,55.2,1003.6,271.7,2.6,7.4,329.2,0.42,0.1,6.7,"10:56:16",1
"17/01/13","11:10",0.0,7.8,54.4,1003.1,268.8,3.2,8.1,226.9,0.22,-0.8,6.9,"11:07:04",1
"17/01/13","11:20",0.0,7.7,54.7,1003.1,290.3,3.0,5.0,255.6,0.25,-0.8,6.9,"11:10:08",1
"17/01/13","11:30",0.0,8.9,53.3,1002.9,281.0,2.3,4.4,229.4,0.41,0.0,7.2,"11:21:52",1
"17/01/13","11:40",0.0,8.2,51.4,1002.6,292.4,2.5,4.2,323.5,0.22,-1.2,7.3,"11:30:16",1
"17/01/13","11:50",0.0,7.6,52.9,1002.2,255.9,2.7,4.7,218.6,0.09,-1.3,7.3,"11:44:16",1
"17/01/13","12:00",0.0,7.8,55.0,1001.9,312.2,2.8,4.8,342.6,0.07,-0.6,7.4,"11:58:00",1
"17/01/13","12:10",0.0,7.6,53.3,1002.4,317.4,3.2,5.0,311.9,0.07,-1.2,7.6,"12:00:32",1
"17/01/13","12:20",0.0,7.5,53.9,1001.9,315.9,2.8,5.1,343.2,0.10,-1.2,7.6,"12:13:36",1
"17/01/13","12:30",0.0,7.5,53.6,1001.7,296.7,2.3,5.1,325.0,0.07,-1.3,7.7,"12:23:20",1
"17/01/13","12:40",0.0,7.6,53.6,1001.5,298.9,2.7,5.0,308.7,0.10,-1.2,7.6,"12:37:20",1
"17/01/13","12:50",0.0,7.8,52.7,1001.7,281.2,2.7,5.4,339.5,0.13,-1.2,7.5,"12:40:48",1
"17/01/13","13:00",0.0,8.5,52.0,1001.2,292.7,2.6,4.9,326.4,0.25,-0.7,7.7,"12:55:52",1
"17/01/13","13:10",0.0,8.1,52.1,1001.2,303.0,3.1,7.2,332.8,0.07,-1.1,7.7,"13:03:52",1
"17/01/13","13:20",0.0,8.0,53.7,1001.2,314.8,3.2,7.3,333.6,0.19,-0.8,7.6,"13:13:12",1
"17/01/13","13:30",0.0,9.0,52.0,1001.0,314.6,3.7,6.4,326.0,0.28,-0.3,7.5,"13:20:02",1
"17/01/13","13:40",0.0,7.8,54.5,1001.5,344.6,3.7,7.9,348.1,0.06,-0.8,7.7,"13:34:56",1
"17/01/13","13:50",0.0,7.2,56.3,1001.5,332.1,4.9,8.7,339.6,0.06,-0.9,7.6,"13:43:22",1
"17/01/13","14:00",0.0,7.1,56.0,1001.0,325.2,3.7,6.5,322.4,0.07,-1.0,7.5,"13:58:48",1
"17/01/13","14:10",0.0,7.3,57.3,1001.0,314.8,3.5,5.6,317.3,0.10,-0.5,7.5,"14:03:28",1
"17/01/13","14:20",0.0,7.4,56.6,1001.2,318.8,4.0,7.9,341.8,0.09,-0.6,7.5,"14:13:52",1
"17/01/13","14:30",0.0,7.2,54.4,1001.5,318.1,4.1,7.0,333.7,0.08,-1.3,7.6,"14:28:28",1
"17/01/13","14:40",0.0,7.0,53.3,1001.5,309.8,4.9,8.0,331.7,0.08,-1.8,7.6,"14:38:28",1
"17/01/13","14:50",0.0,6.7,54.6,1001.5,314.7,4.7,7.8,310.7,0.05,-1.8,7.4,"14:47:10",1
"17/01/13","15:00",0.0,6.5,57.4,1001.2,335.8,4.6,8.3,326.9,0.04,-1.3,7.5,"14:59:12",1
"17/01/13","15:10",0.0,6.2,57.9,1001.2,337.6,5.2,8.3,340.7,0.04,-1.4,7.5,"15:09:58",1
"17/01/13","15:20",0.0,5.9,60.6,1001.5,338.6,4.5,9.1,343.8,0.05,-1.1,7.3,"15:14:04",1
"17/01/13","15:30",0.0,5.9,59.9,1001.5,323.0,4.4,6.2,335.7,0.05,-1.2,7.3,"15:28:52",1
"17/01/13","15:40",0.0,6.5,58.0,1001.7,301.5,3.2,4.9,318.9,0.11,-1.1,7.4,"15:32:44",1
"17/01/13","15:50",0.0,6.3,57.7,1001.9,302.9,3.5,7.2,294.2,0.04,-1.4,7.2,"15:41:34",1
"17/01/13","16:00",0.0,6.0,58.5,1001.9,300.2,4.7,7.3,336.0,0.02,-1.5,7.5,"15:57:50",1
"17/01/13","16:10",0.0,6.1,53.9,1001.9,321.9,5.4,8.1,326.0,0.07,-2.5,7.2,"16:05:02",1
"17/01/13","16:20",0.0,5.8,56.5,1001.9,321.7,6.2,12.1,324.5,0.01,-2.1,7.1,"16:18:42",1
"17/01/13","16:30",0.0,5.6,57.6,1001.9,317.9,6.1,9.5,315.5,0.01,-2.1,7.1,"16:20:26",1
"17/01/13","16:40",0.0,5.4,57.5,1001.7,330.3,5.7,9.1,329.2,0.00,-2.3,6.8,"16:30:48",1
"17/01/13","16:50",0.0,5.3,59.0,1002.2,319.3,4.4,8.6,334.8,0.00,-2.0,6.9,"16:49:54",1
"17/01/13","17:00",0.0,5.0,60.1,1002.2,308.8,4.2,8.9,325.0,0.00,-2.1,6.9,"16:55:26",1
"17/01/13","17:10",0.0,4.8,61.2,1001.9,318.9,4.4,7.9,349.5,0.00,-2.0,6.6,"17:06:26",1
"17/01/13","17:20",0.0,4.6,62.4,1001.7,312.9,4.2,9.4,312.8,0.00,-1.9,6.7,"17:18:00",1
"17/01/13","17:30",0.0,4.4,63.8,1002.2,310.0,4.6,7.8,323.9,0.00,-1.8,6.7,"17:27:44",1
"17/01/13","17:40",0.0,4.0,65.8,1002.2,303.5,3.7,8.1,319.3,0.00,-1.8,6.4,"17:34:32",1
"17/01/13","17:50",0.0,3.7,68.0,1001.7,292.9,3.5,8.0,326.0,0.00,-1.6,6.2,"17:46:48",1
"17/01/13","18:00",0.0,3.5,69.1,1001.9,284.9,3.5,7.2,306.5,0.00,-1.6,6.3,"17:50:02",1
"17/01/13","18:10",0.0,3.3,69.9,1001.5,298.8,3.2,6.5,335.3,0.00,-1.6,6.3,"18:03:28",1
"17/01/13","18:20",0.0,3.3,70.1,1001.9,304.2,3.7,5.4,327.9,0.00,-1.6,6.3,"18:18:56",1
"17/01/13","18:30",0.0,3.5,69.8,1001.9,310.5,3.5,5.9,325.7,0.00,-1.4,6.2,"18:23:44",1
"17/01/13","18:40",0.0,3.5,69.9,1001.9,294.3,3.0,5.6,309.2,0.00,-1.4,6.1,"18:32:40",1
"17/01/13","18:50",0.0,3.5,70.4,1001.7,295.9,3.0,5.9,324.8,0.00,-1.3,6.0,"18:43:20",1
"17/01/13","19:00",0.0,3.3,70.9,1001.7,297.2,2.8,5.4,318.5,0.00,-1.4,6.1,"18:56:56",1
"17/01/13","19:10",0.0,3.3,71.5,1001.9,288.7,2.7,4.7,311.2,0.00,-1.3,6.0,"19:07:44",1
"17/01/13","19:20",0.0,3.2,71.9,1002.2,276.3,2.1,3.9,312.2,0.00,-1.3,6.1,"19:10:08",1
"17/01/13","19:30",0.0,3.3,72.3,1002.2,282.0,2.1,3.2,303.3,0.00,-1.2,6.0,"19:23:36",1
"17/01/13","19:40",0.0,3.2,73.0,1002.2,273.7,1.8,2.9,293.4,0.00,-1.1,6.1,"19:31:04",1
"17/01/13","19:50",0.0,3.0,73.1,1001.9,293.9,2.1,4.3,328.0,0.00,-1.3,5.9,"19:43:36",1
"17/01/13","20:00",0.0,2.9,73.6,1001.9,278.5,1.7,2.9,268.1,0.00,-1.3,6.0,"19:52:40",1
"17/01/13","20:10",0.0,2.8,74.4,1002.2,281.6,2.5,4.0,294.9,0.00,-1.3,6.0,"20:08:40",1
"17/01/13","20:20",0.0,2.8,74.9,1001.9,284.7,2.8,4.0,269.1,0.00,-1.2,6.0,"20:10:56",1
"17/01/13","20:30",0.0,2.5,74.8,1001.7,283.6,2.3,4.3,264.3,0.00,-1.5,5.6,"20:24:50",1
"17/01/13","20:40",0.0,2.2,75.3,1001.5,293.7,2.2,2.9,272.1,0.00,-1.7,5.5,"20:30:28",1
"17/01/13","20:50",0.0,1.7,76.6,1001.7,303.1,2.5,3.4,307.9,0.00,-1.9,5.9,"20:44:50",1
"17/01/13","21:00",0.0,1.4,77.8,1001.0,303.2,2.5,3.3,314.6,0.00,-2.0,5.6,"20:51:12",1
"17/01/13","21:10",0.0,1.2,79.0,1001.2,310.8,2.8,3.7,328.2,0.00,-2.0,5.5,"21:07:36",1
"17/01/13","21:20",0.0,0.9,79.8,1000.8,293.3,2.1,2.9,318.7,0.00,-2.1,5.7,"21:11:44",1
"17/01/13","21:30",0.0,0.6,80.6,1000.8,293.3,2.0,2.7,318.5,0.00,-2.3,5.3,"21:24:00",1
"17/01/13","21:40",0.0,0.4,81.2,1000.8,305.5,2.2,3.3,318.1,0.00,-2.4,5.6,"21:35:52",1
"17/01/13","21:50",0.0,0.4,81.7,1000.8,303.2,2.5,3.7,316.3,0.00,-2.3,5.2,"21:40:02",1
"17/01/13","22:00",0.0,0.3,81.3,1000.5,291.9,2.0,3.5,330.4,0.00,-2.5,5.0,"21:50:08",1
"17/01/13","22:10",0.0,0.4,81.2,1000.8,301.9,2.3,3.4,321.1,0.00,-2.4,5.2,"22:03:44",1
"17/01/13","22:20",0.0,0.9,79.5,1001.2,303.8,3.0,4.0,314.7,0.00,-2.2,5.2,"22:12:32",1
"17/01/13","22:30",0.0,1.5,74.6,1001.2,302.3,3.4,4.8,313.5,0.00,-2.5,5.2,"22:28:34",1
"17/01/13","22:40",0.0,2.0,70.0,1001.0,293.0,2.8,4.9,314.1,0.00,-2.9,5.0,"22:31:36",1
"17/01/13","22:50",0.0,2.3,67.1,1001.0,283.3,2.6,5.1,316.1,0.00,-3.1,5.1,"22:43:14",1
"17/01/13","23:00",0.0,2.4,65.4,1001.5,294.0,2.5,4.5,316.0,0.00,-3.4,5.4,"22:58:32",1
"17/01/13","23:10",0.0,2.6,64.7,1001.0,286.1,2.5,4.9,305.1,0.00,-3.3,5.3,"23:01:28",1
"17/01/13","23:20",0.0,2.6,64.4,1001.2,283.0,2.3,4.7,329.6,0.00,-3.4,5.1,"23:12:00",1
"17/01/13","23:30",0.0,2.7,63.8,1001.0,267.5,2.8,6.3,253.5,0.00,-3.4,5.3,"23:25:04",1
"17/01/13","23:40",0.0,2.7,64.2,1000.5,299.2,3.1,4.7,341.4,0.00,-3.3,5.0,"23:39:12",1
"17/01/13","23:50",0.0,2.8,64.2,1000.5,289.8,2.5,6.0,332.9,0.00,-3.2,5.2,"23:45:04",1
"17/01/13","24:00",0.0,2.8,64.6,1000.5,298.8,2.8,5.5,329.2,0.00,-3.2,5.3,"23:54:56",1
